Regional Weather Roundup
Issued by NWS Charleston, SC

Current Version | Previous Version | Graphics & Text | Print | Product List | Glossary On
Versions: 1 2 3 4 5 6 7 8 9 10 11 12 13 14 15 16 17 18 19 20 21 22 23 24 25 26 27 28 29 30 31 32 33 34 35 36 37 38 39 40 41 42 43 44 45 46 47 48 49 50
000 ASUS42 KCHS 040427 RWRCHS REGIONAL WEATHER ROUNDUP NATIONAL WEATHER SERVICE CHARLESTON SC 1200 AM EDT SAT JUL 04 2015 NOTE: "FAIR" INDICATES FEW OR NO CLOUDS BELOW 12,000 FEET WITH NO SIGNIFICANT WEATHER AND/OR OBSTRUCTIONS TO VISIBILITY. NOT ALL STATIONS ARE QUALITY CONTROLLED BY THE NATIONAL WEATHER SERVICE. USE DATA WITH CAUTION...ESPECIALLY DEWPOINT OBSERVATIONS. SCZ027-030-031-034>040-042>050-040500- ...SOUTHEAST SOUTH CAROLINA... CITY SKY/WX TMP DP RH WIND PRES REMARKS N CHARLESTON PTCLDY 78 75 90 S9 30.02S WATERFRONT PAR N/A 81 77 88 SW12 30.00R MOUNT PLEASANT FAIR 81 75 83 S12G17 30.03S JOHNS ISLAND FAIR 81 77 89 SW14G22 30.03F PINOPOLIS NOT AVBL MONCKS CORNER FAIR 75 72 88 CALM 30.02S SUMMERVILLE FAIR 73 73 100 CALM 30.03S BEAUFORT MCAS CLEAR 82 76 81 S8 30.04R BEAUFORT ARPT FAIR 82 73 74 SW7 30.03F HILTON HEAD IS CLEAR 82 75 78 S6G16 30.05F WALTERBORO CLEAR 73 72 94 S3 30.03S ALLENDALE MOCLDY 77 72 83 CALM 30.02S THUNDER ...SOUTHERN MIDLANDS AND PEE DEE... CITY SKY/WX TMP DP RH WIND PRES REMARKS GEORGETOWN NOT AVBL KINGSTREE NOT AVBL ORANGEBURG PTCLDY 73 70 90 CALM 30.04R BARNWELL FAIR 73 72 94 CALM 30.04S AIKEN NOT AVBL MANNING MOCLDY 77 70 78 SW5 30.02S COLUMBIA MOCLDY 79 70 74 SW7 30.01R SUMTER CLOUDY 78 69 74 SW13 29.99R FLORENCE MOCLDY 80 69 69 W15G22 29.97R MYRTLE BEACH PTCLDY 79 70 73 SW8 30.02R N MYRTLE BEACH PTCLDY 78 69 73 SW16G22 29.98R $$ GAZ063-065-086>088-099>101-113>116-118-119-134>141-150-040500- ...SOUTHEAST GEORGIA... CITY SKY/WX TMP DP RH WIND PRES REMARKS SAVANNAH ARPT CLEAR 80 73 79 S9 30.04S HUNTER AAF CLEAR 81 75 82 S9 30.02F FORT STEWART CLEAR 78 72 81 S6 30.03S STATESBORO NOT AVBL SYLVANIA PTCLDY 80 75 84 SW3 30.04S CLAXTON FAIR 79 72 78 CALM 30.04F ...CSRA...CENTRAL AND FAR SOUTHEAST GEORGIA... CITY SKY/WX TMP DP RH WIND PRES REMARKS THOMSON MOCLDY 75 75 100 CALM 30.07F AUGUSTA-BUSH MOCLDY 74 73 97 CALM 30.02R AUGUSTA-DANIEL MOCLDY 78 72 81 CALM 30.04S SWAINSBORO FAIR 81 73 78 CALM 30.05S VIDALIA CLEAR 79 72 78 SW5 30.05F EASTMAN FAIR 81 73 76 SW3 30.06F HAZLEHURST FAIR 80 74 82 S3 30.05S ALMA PTCLDY 79 72 79 SW6 30.06R WAYCROSS CLEAR 82 76 80 W8 30.06F JESUP FAIR 81 73 78 SW3 30.05F BAXLEY FAIR 81 73 78 CALM 30.05S BRUNSWICK CLEAR 82 73 74 S7 30.07S SAINT SIMONS CLEAR 81 73 76 S7 30.06S $$ SCZ027-028-034-036>038-045-046-048>050-GAZ119-141-040500- ...LAKE AND SUPPLEMENTAL COASTAL OBSERVATIONS... STATION/POSITION TIME TEMP WIND PRES WAVE SWELL AIR SEA DIR/SP/G HT/PER HT/PER/DIR (UTC) (F) (DEG/KT/KT) (MB) (FT/S) (FT/S/D) UPR LAKE MARION NOT AVBL WINYAH BAY 0300 78 230/ 8 1015.0 LAKE MURRAY 0300 81 260/ 17/ 23 1015.2R ACE BASIN NERRS NOT AVBL FORT PULASKI 0400 82 84 200/ 14/ 20 1017.9S SAPELO ISLAND 0400 82 190/ 13 1018.0S $$ ANZ835-935-AMZ111-154-330-350-352-354-370-450-454-472-040500- ...C-MAN AND BUOY OBSERVATIONS... STATION/POSITION TIME TEMP WIND PRES WAVE SWELL AIR SEA DIR/SP/G HT/PER HT/PER/DIR (UTC) (F) (DEG/KT/KT) (MB) (FT/S) (FT/S/D) BUOY 41004 0350 83 81 210/ 17/ 19 1016.4R 3/ 9 2/ 9 BUOY 41008 0350 80 79 200/ 16/ 19 1017.8R 3/ 9 2/110/ 9 FOLLY BEACH CMAN 0400 81 220/ 15/ 18 1017.0R CAPERS NEARSHORE 0308 81 220/ 17/ 23 1017.0R FRIPP NEARSHORE 0300 82 230/ 19/ 21 1016.6R STATION/POSITION TIME TEMP WIND PRES WAVE SWELL AIR SEA DIR/SP/G HT/PER HT/PER/DIR (UTC) (F) (DEG/KT/KT) (MB) (FT/S) (FT/S/D) 5E ST. MARYS GA 0321 77 N/A 3/ 3 FRYING PAN BUOY 0350 81 79 210/ 21/ 25 1015.5R 6/ 6 BUOY 41025 0350 80 81 220/ 21/ 25 1012.4F 7/ 6 2/150/ 9 CAPE LOOKOUT NC 0400 79 240/ 17/ 23 1013.3S BUOY 41002 0350 81 80 230/ 14/ 16 1019.4S 5/ 7 3/140/ 8 BUOY 41010 0320 83 85 160/ 10/ 12 1020.3S ST AUGUSTINE FL 0400 79 73 200/ 8/ 10 1019.9R $$

USA.gov is the U.S. government's official web portal to all federal, state and local government web resources and services.